Retour au catalogue

CZ-3 DEB

ActifHEO
NORAD 28984·DEBRIS·🇨🇳 China

Lancé Feb 4, 1990 depuis Xichang Satellite Launch Center

Loading…

Prochains Passages (prochaines 24 heures)

TLE

FraisSource: Space-Track

Époque: Sep 5, 2026, 11:58 UTC

1 28984U 90011C   26248.49870837  .00002940  00000-0  78506-2 0  9993
2 28984  29.6366  29.2071 4666086 264.7349  42.4111  5.81992508 37478

Suivez CZ-3 DEB en temps réel avec AllMySat

Download on the App Store